QPF
0.00 0.00 0.00 0.00 0.00 0.00 0.00 0.00 0.00 0.00 0.00 0.00 0.00 0.00 0.00 0.00 0.00 0.00 0.00 0.00 0.00 0.00 0.00 0.00 0.00 0.00 0.00 0.00 0.00 0.00 0.00 0.00 0.00 0.00 0.01 0.02 0.00 0.00 0.01 0.01 0.00 0.00 0.00
0.00 0.00 0.00 0.00 0.00 0.00 0.00 0.00 0.00 0.00 0.00 0.00 0.00 0.00 0.00 0.00 0.00 0.00 0.00 0.00 0.00 0.00 0.00 0.00 0.00 0.00 0.00 0.00 0.00 0.00 0.00 0.00 0.00 0.01 0.04 0.07 0.06 0.02 0.01 0.01 0.01 0.00 0.00
0.00 0.00 0.00 0.00 0.00 0.00 0.00 0.00 0.00 0.00 0.00 0.00 0.00 0.00 0.00 0.00 0.00 0.00 0.00 0.00 0.00 0.00 0.00 0.00 0.00 0.00 0.00 0.00 0.00 0.00 0.00 0.00 0.00 0.00 0.02 0.06 0.01 0.02 0.01 0.04 0.01 0.01 0.00
0.00 0.00 0.00 0.00 0.00 0.00 0.00 0.00 0.00 0.00 0.00 0.00 0.00 0.00 0.00 0.00 0.00 0.00 0.00 0.00 0.00 0.00 0.00 0.00 0.00 0.00 0.00 0.00 0.00 0.00 0.00 0.00 0.00 0.00 0.00 0.00 0.00 0.01 0.01 0.03 0.05 0.02 0.00
0.00 0.00 0.00 0.00 0.00 0.00 0.00 0.00 0.00 0.00 0.00 0.00 0.00 0.00 0.00 0.00 0.00 0.00 0.00 0.00 0.00 0.00 0.00 0.00 0.00 0.00 0.00 0.00 0.00 0.00 0.00 0.00 0.00 0.00 0.00 0.00 0.00 0.01 0.01 0.00 0.02 0.03 0.02
0.00 0.00 0.00 0.00 0.00 0.00 0.00 0.00 0.00 0.00 0.00 0.00 0.00 0.00 0.00 0.00 0.00 0.00 0.00 0.00 0.00 0.00 0.00 0.00 0.00 0.00 0.00 0.00 0.00 0.00 0.00 0.00 0.00 0.00 0.00 0.00 0.00 0.01 0.03 0.01 0.00 0.00 0.00
0.00 0.00 0.00 0.00 0.00 0.00 0.00 0.00 0.00 0.00 0.00 0.00 0.00 0.00 0.00 0.00 0.00 0.00 0.00 0.00 0.00 0.00 0.00 0.00 0.00 0.00 0.00 0.00 0.00 0.00 0.00 0.00 0.00 0.00 0.00 0.00 0.00 0.01 0.04 0.03 0.01 0.00 0.00
0.00 0.00 0.00 0.00 0.00 0.00 0.00 0.00 0.00 0.00 0.00 0.00 0.00 0.00 0.00 0.00 0.00 0.00 0.00 0.00 0.00 0.00 0.00 0.00 0.00 0.00 0.00 0.00 0.00 0.00 0.00 0.00 0.00 0.00 0.00 0.00 0.00 0.01 0.03 0.03 0.05 0.06 0.04
0.00 0.00 0.00 0.00 0.00 0.00 0.00 0.00 0.00 0.00 0.00 0.00 0.00 0.00 0.00 0.00 0.00 0.00 0.00 0.00 0.00 0.00 0.00 0.00 0.00 0.00 0.00 0.00 0.00 0.00 0.00 0.00 0.00 0.00 0.00 0.00 0.00 0.00 0.01 0.02 0.03 0.07 0.08
0.00 0.00 0.00 0.00 0.00 0.00 0.00 0.00 0.00 0.00 0.00 0.00 0.00 0.00 0.00 0.00 0.00 0.00 0.00 0.00 0.00 0.00 0.00 0.00 0.00 0.00 0.00 0.00 0.00 0.00 0.00 0.00 0.00 0.00 0.00 0.00 0.00 0.00 0.01 0.02 0.01 0.01 0.03
0.00 0.00 0.00 0.00 0.00 0.00 0.00 0.00 0.00 0.00 0.00 0.00 0.00 0.00 0.00 0.00 0.00 0.00 0.00 0.00 0.00 0.00 0.00 0.00 0.00 0.00 0.00 0.00 0.00 0.00 0.00 0.00 0.00 0.00 0.00 0.00 0.01 0.02 0.01 0.01 0.00 0.01 0.01
0.00 0.00 0.00 0.00 0.00 0.00 0.00 0.00 0.00 0.00 0.00 0.00 0.00 0.00 0.00 0.00 0.00 0.00 0.00 0.00 0.00 0.00 0.00 0.00 0.00 0.00 0.00 0.00 0.00 0.00 0.00 0.00 0.00 0.00 0.00 0.00 0.00 0.00 0.00 0.01 0.02 0.02 0.03
0.00 0.00 0.00 0.00 0.00 0.00 0.00 0.00 0.00 0.00 0.00 0.00 0.00 0.00 0.00 0.00 0.00 0.00 0.00 0.00 0.00 0.00 0.00 0.00 0.00 0.00 0.00 0.00 0.00 0.00 0.00 0.00 0.00 0.00 0.00 0.00 0.00 0.00 0.00 0.00 0.02 0.03 0.06
0.00 0.00 0.00 0.00 0.00 0.00 0.00 0.00 0.00 0.00 0.00 0.00 0.00 0.00 0.00 0.00 0.00 0.00 0.00 0.00 0.00 0.00 0.00 0.00 0.00 0.00 0.00 0.00 0.00 0.00 0.00 0.00 0.00 0.00 0.00 0.00 0.00 0.00 0.00 0.00 0.01 0.02 0.01
0.00 0.00 0.00 0.00 0.00 0.00 0.00 0.00 0.00 0.00 0.00 0.00 0.00 0.00 0.00 0.00 0.00 0.00 0.00 0.00 0.00 0.00 0.00 0.00 0.00 0.00 0.00 0.00 0.00 0.00 0.00 0.00 0.00 0.00 0.00 0.00 0.00 0.00 0.00 0.00 0.00 0.01 0.01
0.00 0.00 0.00 0.00 0.00 0.00 0.00 0.00 0.00 0.00 0.00 0.00 0.00 0.00 0.00 0.00 0.00 0.00 0.00 0.00 0.00 0.00 0.00 0.00 0.00 0.00 0.00 0.00 0.00 0.00 0.00 0.00 0.00 0.00 0.00 0.00 0.00 0.00 0.00 0.00 0.00 0.01 0.02
0.00 0.00 0.00 0.00 0.00 0.00 0.00 0.00 0.00 0.00 0.00 0.00 0.00 0.00 0.00 0.00 0.00 0.00 0.00 0.00 0.00 0.00 0.00 0.00 0.00 0.00 0.00 0.00 0.00 0.00 0.00 0.00 0.00 0.00 0.00 0.00 0.00 0.00 0.00 0.00 0.00 0.00 0.00
0.00 0.00 0.00 0.00 0.00 0.00 0.00 0.00 0.00 0.00 0.00 0.00 0.00 0.00 0.00 0.00 0.00 0.00 0.00 0.00 0.00 0.00 0.00 0.00 0.00 0.00 0.00 0.00 0.00 0.00 0.00 0.00 0.00 0.00 0.00 0.00 0.00 0.00 0.00 0.00 0.00 0.00 0.00
0.00 0.00 0.00 0.00 0.00 0.00 0.00 0.00 0.00 0.00 0.00 0.00 0.00 0.00 0.00 0.00 0.00 0.00 0.00 0.00 0.00 0.00 0.00 0.00 0.00 0.00 0.00 0.00 0.00 0.00 0.00 0.00 0.00 0.00 0.00 0.00 0.00 0.00 0.00 0.00 0.00 0.00 0.00
0.01 0.01 0.02 0.01 0.00 0.00 0.00 0.00 0.00 0.00 0.00 0.00 0.00 0.00 0.00 0.00 0.00 0.00 0.00 0.00 0.00 0.00 0.00 0.00 0.00 0.00 0.00 0.00 0.00 0.00 0.00 0.00 0.00 0.00 0.00 0.00 0.00 0.00 0.00 0.00 0.00 0.00 0.00
0.02 0.01 0.04 0.04 0.02 0.01 0.00 0.00 0.00 0.00 0.00 0.00 0.00 0.00 0.00 0.00 0.00 0.00 0.00 0.00 0.00 0.00 0.00 0.00 0.00 0.00 0.00 0.00 0.00 0.00 0.00 0.00 0.00 0.00 0.00 0.00 0.00 0.00 0.00 0.00 0.00 0.00 0.00
0.01 0.04 0.04 0.06 0.05 0.03 0.01 0.01 0.01 0.00 0.00 0.00 0.00 0.00 0.00 0.00 0.00 0.00 0.00 0.00 0.00 0.00 0.00 0.00 0.00 0.00 0.00 0.00 0.00 0.00 0.00 0.00 0.00 0.00 0.00 0.00 0.00 0.00 0.00 0.00 0.00 0.00 0.00
0.00 0.02 0.07 0.08 0.07 0.06 0.05 0.03 0.02 0.02 0.01 0.00 0.00 0.00 0.00 0.00 0.00 0.00 0.00 0.00 0.00 0.00 0.00 0.00 0.00 0.00 0.00 0.00 0.00 0.00 0.00 0.00 0.00 0.00 0.00 0.00 0.00 0.00 0.00 0.00 0.00 0.00 0.00
0.03 0.09 0.14 0.07 0.07 0.06 0.05 0.03 0.02 0.01 0.00 0.00 0.00 0.00 0.00 0.00 0.00 0.00 0.00 0.00 0.00 0.00 0.00 0.00 0.00 0.00 0.00 0.00 0.00 0.00 0.00 0.00 0.00 0.00 0.00 0.00 0.00 0.00 0.00 0.00 0.00 0.00 0.00
0.05 0.08 0.06 0.06 0.06 0.04 0.02 0.02 0.01 0.00 0.00 0.00 0.00 0.00 0.00 0.00 0.00 0.00 0.00 0.00 0.00 0.00 0.00 0.00 0.00 0.00 0.00 0.00 0.00 0.00 0.00 0.00 0.00 0.00 0.00 0.00 0.00 0.00 0.00 0.00 0.00 0.00 0.00
0.02 0.09 0.07 0.04 0.04 0.03 0.03 0.03 0.02 0.00 0.00 0.00 0.00 0.00 0.00 0.00 0.00 0.00 0.00 0.00 0.00 0.00 0.00 0.00 0.00 0.00 0.00 0.00 0.00 0.00 0.00 0.00 0.00 0.00 0.00 0.00 0.00 0.00 0.00 0.00 0.00 0.00 0.00
MSLP
1009.51 1009.77 1009.99 1010.29 1010.38 1010.51 1010.76 1010.95 1011.14 1011.48 1011.89 1012.32 1012.68 1012.81 1013.02 1013.36 1013.77 1013.99 1014.17 1014.37 1014.50 1014.65 1014.79 1015.03 1015.10 1015.18 1015.22 1015.29 1015.48 1015.63 1015.69 1015.77 1015.73 1015.85 1015.90 1015.95 1015.94 1015.96 1015.93 1015.97 1016.00 1016.12 1016.26
1008.96 1009.82 1010.16 1010.41 1010.35 1010.73 1011.08 1011.26 1011.35 1011.60 1011.93 1012.42 1012.81 1013.21 1013.37 1013.58 1013.99 1014.27 1014.37 1014.60 1014.70 1014.77 1014.93 1015.10 1015.19 1015.33 1015.37 1015.50 1015.69 1015.86 1015.95 1016.05 1016.07 1016.12 1016.09 1016.11 1016.16 1016.23 1016.25 1016.43 1016.46 1016.48 1016.58
1009.13 1009.90 1010.46 1010.65 1010.68 1010.97 1011.28 1011.51 1011.59 1011.79 1012.09 1012.57 1012.91 1013.32 1013.55 1013.86 1014.14 1014.53 1014.69 1014.78 1014.90 1015.09 1015.31 1015.43 1015.57 1015.69 1015.77 1015.90 1016.01 1016.13 1016.13 1016.24 1016.26 1016.33 1016.38 1016.45 1016.40 1016.42 1016.47 1016.56 1016.63 1016.67 1016.83
1009.03 1009.88 1010.33 1010.73 1010.97 1011.25 1011.44 1011.59 1011.88 1012.12 1012.29 1012.75 1013.16 1013.51 1013.87 1014.09 1014.34 1014.67 1014.88 1015.10 1015.24 1015.36 1015.58 1015.74 1015.90 1016.01 1016.05 1016.20 1016.31 1016.45 1016.41 1016.34 1016.40 1016.37 1016.42 1016.46 1016.52 1016.47 1016.45 1016.58 1016.63 1016.73 1016.90
1009.48 1009.96 1010.46 1010.54 1010.85 1011.31 1011.55 1011.89 1012.15 1012.35 1012.54 1012.94 1013.29 1013.68 1013.96 1014.25 1014.54 1014.86 1015.12 1015.33 1015.48 1015.57 1015.78 1015.91 1016.07 1016.24 1016.28 1016.38 1016.42 1016.56 1016.62 1016.50 1016.45 1016.49 1016.49 1016.52 1016.47 1016.27 1016.40 1016.54 1016.67 1016.67 1016.77
1009.67 1010.08 1010.35 1010.57 1010.90 1011.39 1011.65 1011.97 1012.37 1012.54 1012.74 1013.01 1013.44 1013.81 1014.12 1014.25 1014.64 1014.99 1015.30 1015.25 1015.40 1015.65 1015.80 1016.02 1016.28 1016.38 1016.45 1016.47 1016.48 1016.61 1016.73 1016.70 1016.63 1016.74 1016.68 1016.48 1016.31 1016.17 1016.23 1016.48 1016.74 1016.82 1016.82
1009.64 1009.96 1010.42 1010.80 1011.20 1011.55 1011.83 1012.06 1012.37 1012.73 1012.93 1013.18 1013.63 1014.03 1014.34 1014.46 1014.70 1014.88 1015.41 1015.37 1015.33 1015.66 1016.01 1016.21 1016.31 1016.42 1016.58 1016.54 1016.50 1016.49 1016.56 1016.63 1016.71 1016.78 1016.67 1016.61 1016.37 1016.15 1016.18 1016.42 1016.70 1016.82 1016.96
1009.83 1010.21 1010.63 1010.94 1011.40 1011.81 1011.94 1012.24 1012.59 1012.96 1013.16 1013.34 1013.77 1014.31 1014.44 1014.68 1014.86 1014.92 1015.36 1015.67 1015.66 1015.85 1016.07 1016.30 1016.43 1016.42 1016.42 1016.50 1016.48 1016.37 1016.40 1016.46 1016.52 1016.63 1016.68 1016.60 1016.35 1016.16 1015.94 1016.23 1016.56 1016.86 1017.01
1010.15 1010.38 1010.55 1010.83 1011.31 1011.67 1012.19 1012.57 1012.82 1013.05 1013.30 1013.33 1013.70 1014.27 1014.73 1014.89 1015.18 1015.28 1015.49 1015.73 1015.82 1015.98 1016.13 1016.30 1016.37 1016.45 1016.50 1016.49 1016.47 1016.26 1016.35 1016.45 1016.53 1016.65 1016.64 1016.61 1016.46 1016.16 1016.08 1016.21 1016.49 1016.67 1016.77
1010.64 1010.70 1010.60 1010.87 1011.29 1011.83 1012.32 1012.50 1012.83 1013.07 1013.35 1013.56 1013.81 1014.33 1014.78 1014.92 1015.22 1015.45 1015.73 1015.94 1016.10 1016.21 1016.35 1016.42 1016.53 1016.57 1016.61 1016.63 1016.50 1016.47 1016.44 1016.42 1016.47 1016.55 1016.55 1016.47 1016.24 1016.14 1016.08 1016.18 1016.41 1016.57 1016.70
1010.78 1010.90 1010.92 1011.15 1011.48 1011.80 1012.26 1012.80 1013.11 1013.32 1013.44 1013.70 1014.00 1014.27 1014.71 1015.10 1015.34 1015.57 1015.83 1015.97 1016.09 1016.30 1016.53 1016.70 1016.83 1016.90 1016.91 1016.92 1016.84 1016.78 1016.75 1016.84 1016.79 1016.93 1016.86 1016.60 1016.27 1016.11 1016.10 1016.12 1016.24 1016.47 1016.68
1010.49 1011.00 1011.35 1011.62 1011.85 1012.05 1012.22 1012.68 1013.12 1013.42 1013.65 1014.04 1014.14 1014.29 1014.74 1015.21 1015.54 1015.82 1016.07 1016.17 1016.34 1016.57 1016.73 1016.91 1017.03 1017.16 1017.27 1017.31 1017.32 1017.23 1017.34 1017.33 1017.15 1017.09 1017.05 1016.80 1016.51 1016.42 1016.32 1016.26 1016.38 1016.50 1016.73
1010.51 1010.94 1011.32 1011.74 1011.86 1011.97 1012.32 1012.94 1013.37 1013.57 1013.95 1014.23 1014.42 1014.50 1014.78 1015.24 1015.68 1016.16 1016.36 1016.60 1016.72 1016.85 1017.08 1017.19 1017.20 1017.25 1017.42 1017.46 1017.47 1017.45 1017.50 1017.69 1017.71 1017.57 1017.40 1017.12 1016.93 1016.74 1016.73 1016.63 1016.67 1016.72 1016.80
1010.02 1010.59 1011.03 1011.31 1011.62 1011.81 1012.26 1012.76 1013.33 1013.79 1014.23 1014.49 1014.76 1014.88 1015.14 1015.58 1016.03 1016.47 1016.77 1016.95 1017.13 1017.40 1017.43 1017.62 1017.74 1017.78 1017.80 1017.74 1017.68 1017.74 1017.95 1017.84 1017.85 1017.85 1017.87 1017.86 1017.47 1017.19 1017.20 1017.23 1017.14 1017.28 1017.40
1009.85 1010.18 1010.67 1011.02 1011.24 1011.50 1011.94 1012.60 1013.32 1013.88 1014.43 1014.77 1015.12 1015.30 1015.64 1016.07 1016.57 1016.87 1017.20 1017.37 1017.55 1017.71 1018.00 1018.25 1018.29 1018.45 1018.55 1018.43 1018.36 1018.38 1018.44 1018.37 1018.34 1018.47 1018.41 1018.16 1017.90 1017.74 1017.60 1017.62 1017.54 1017.59 1017.91
1009.59 1009.75 1010.49 1011.27 1011.83 1011.86 1012.15 1012.66 1013.38 1014.00 1014.50 1014.75 1015.12 1015.30 1015.84 1016.22 1016.61 1017.06 1017.55 1017.78 1017.94 1018.05 1018.32 1018.53 1018.73 1018.79 1018.75 1018.59 1018.56 1018.62 1018.60 1018.79 1018.85 1019.01 1018.87 1018.91 1018.68 1018.65 1018.51 1018.39 1018.24 1018.41 1018.64
1009.08 1009.44 1009.83 1010.75 1011.48 1012.35 1012.75 1013.16 1013.71 1014.29 1014.55 1014.67 1014.94 1015.36 1015.96 1016.35 1016.59 1017.07 1017.51 1017.84 1018.17 1018.34 1018.43 1018.54 1018.74 1018.86 1018.87 1018.74 1018.90 1018.82 1018.71 1018.77 1018.97 1019.22 1019.48 1019.50 1019.47 1019.30 1019.20 1019.19 1019.18 1019.27 1019.40
1008.78 1009.23 1009.86 1010.29 1011.13 1011.74 1012.52 1013.30 1013.98 1014.51 1014.92 1015.21 1015.39 1015.70 1016.00 1016.31 1016.54 1017.03 1017.55 1017.99 1018.25 1018.43 1018.59 1018.74 1019.02 1019.06 1018.98 1019.08 1019.13 1019.14 1019.03 1018.86 1019.17 1019.53 1019.78 1020.02 1020.12 1020.22 1019.98 1019.85 1019.83 1019.97 1020.02
1008.22 1008.68 1009.42 1010.02 1010.83 1012.08 1012.76 1013.46 1014.14 1014.76 1015.18 1015.37 1015.69 1016.04 1016.43 1016.62 1016.86 1017.23 1017.71 1018.12 1018.29 1018.60 1018.87 1019.02 1019.40 1019.40 1019.57 1019.53 1019.47 1019.58 1019.57 1019.66 1019.67 1019.83 1019.98 1020.14 1020.28 1020.53 1020.66 1020.75 1020.66 1020.89 1020.98
1008.13 1008.92 1009.74 1010.39 1010.74 1011.47 1012.53 1013.51 1014.51 1015.09 1015.58 1015.73 1016.14 1016.55 1016.90 1017.20 1017.43 1017.73 1018.17 1018.58 1018.72 1018.96 1019.19 1019.31 1019.64 1019.74 1019.81 1019.84 1019.85 1020.24 1020.38 1020.27 1020.25 1020.37 1020.50 1020.52 1020.72 1020.96 1020.91 1021.18 1021.25 1021.60 1021.63
1007.60 1008.51 1009.32 1009.94 1010.83 1011.50 1012.53 1013.62 1014.87 1015.55 1016.04 1016.17 1016.17 1016.18 1016.40 1016.91 1017.50 1017.92 1018.34 1018.72 1018.90 1019.11 1019.33 1019.52 1019.85 1020.12 1020.25 1020.24 1020.31 1021.07 1021.30 1021.43 1021.42 1021.36 1021.36 1021.35 1021.37 1021.57 1021.64 1021.90 1022.24 1022.04 1022.15
1006.68 1007.54 1008.74 1009.58 1010.54 1011.35 1011.89 1012.85 1014.10 1015.31 1016.07 1016.32 1016.46 1016.31 1016.41 1016.73 1017.14 1017.66 1018.14 1018.61 1018.85 1019.05 1019.21 1019.36 1019.63 1020.17 1020.53 1020.55 1020.78 1021.32 1022.07 1022.31 1022.40 1022.29 1022.08 1022.05 1022.10 1021.88 1022.21 1022.61 1022.88 1022.64 1022.48
1006.32 1006.98 1008.27 1009.10 1010.13 1011.27 1012.37 1013.10 1014.23 1015.50 1016.23 1016.71 1016.92 1016.89 1016.84 1016.94 1017.35 1017.80 1018.36 1018.91 1019.34 1019.54 1019.66 1019.74 1019.86 1019.93 1020.47 1020.86 1020.64 1020.86 1022.00 1022.44 1022.84 1022.86 1022.99 1022.86 1022.95 1022.79 1022.35 1022.72 1023.61 1023.47 1023.07
1005.85 1007.10 1008.60 1009.66 1010.46 1011.30 1012.19 1012.97 1013.73 1014.72 1015.86 1016.57 1016.99 1017.32 1017.44 1017.43 1017.57 1017.80 1018.25 1018.83 1019.35 1019.73 1019.90 1019.97 1020.10 1020.26 1020.44 1020.92 1021.09 1021.10 1021.28 1021.74 1022.60 1023.31 1023.32 1023.57 1023.52 1023.57 1023.16 1023.08 1023.70 1024.12 1023.73
1006.59 1007.51 1008.52 1009.41 1010.64 1011.72 1012.60 1013.50 1014.25 1015.24 1016.17 1016.89 1017.46 1017.77 1018.27 1018.54 1018.68 1018.88 1019.12 1019.50 1019.82 1020.13 1020.35 1020.26 1020.42 1020.64 1020.87 1021.20 1021.28 1021.73 1021.79 1022.06 1022.32 1022.80 1023.73 1024.10 1024.05 1024.21 1023.98 1023.64 1024.07 1024.21 1024.38
1008.18 1008.81 1009.71 1010.14 1011.24 1012.28 1013.33 1014.04 1014.87 1015.55 1015.87 1016.81 1017.69 1018.16 1018.32 1018.85 1019.31 1019.39 1019.49 1019.70 1019.96 1020.15 1020.38 1020.54 1020.70 1020.84 1021.02 1021.11 1021.41 1021.69 1022.04 1022.34 1022.88 1023.14 1023.74 1024.41 1024.36 1024.71 1024.70 1024.20 1024.59 1024.34 1024.71
Thickness
5788 5785 5781 5775 5772 5769 5765 5761 5758 5754 5750 5745 5742 5740 5738 5734 5729 5727 5724 5722 5721 5719 5717 5714 5713 5712 5713 5713 5711 5709 5709 5707 5707 5705 5704 5703 5703 5702 5702 5701 5700 5699 5697
5791 5781 5776 5772 5770 5766 5762 5758 5756 5752 5748 5743 5740 5736 5734 5731 5726 5723 5722 5718 5717 5716 5714 5713 5712 5711 5711 5711 5708 5706 5706 5705 5703 5702 5702 5701 5700 5698 5697 5695 5694 5694 5692
5786 5776 5770 5767 5766 5762 5758 5754 5752 5749 5746 5740 5737 5733 5730 5727 5724 5719 5717 5716 5714 5711 5709 5708 5707 5706 5707 5706 5704 5703 5703 5702 5701 5700 5699 5698 5697 5696 5693 5692 5692 5691 5688
5783 5773 5768 5763 5760 5757 5755 5752 5748 5744 5742 5737 5733 5729 5725 5723 5720 5717 5715 5711 5709 5708 5705 5703 5702 5702 5702 5702 5700 5698 5699 5700 5699 5698 5697 5695 5694 5694 5693 5691 5691 5689 5687
5775 5769 5763 5762 5759 5755 5752 5747 5743 5740 5738 5733 5730 5726 5723 5720 5717 5714 5711 5708 5706 5705 5702 5701 5700 5699 5699 5699 5699 5697 5696 5697 5697 5696 5695 5694 5694 5694 5694 5691 5688 5688 5688
5770 5765 5762 5760 5756 5751 5748 5744 5739 5737 5734 5731 5726 5723 5720 5719 5715 5711 5708 5709 5706 5703 5702 5701 5699 5698 5698 5698 5698 5696 5695 5695 5695 5693 5692 5694 5695 5696 5695 5692 5688 5687 5686
5769 5765 5759 5755 5750 5746 5743 5741 5737 5733 5731 5727 5722 5718 5716 5716 5714 5712 5706 5706 5706 5703 5700 5699 5698 5698 5696 5696 5696 5696 5695 5695 5695 5694 5692 5691 5693 5694 5693 5691 5688 5686 5684
5764 5759 5754 5750 5745 5740 5739 5736 5732 5728 5726 5724 5719 5714 5713 5712 5711 5711 5706 5703 5703 5701 5699 5697 5696 5696 5696 5695 5693 5693 5695 5695 5694 5694 5692 5691 5691 5691 5692 5690 5687 5684 5682
5757 5754 5752 5748 5742 5740 5734 5730 5728 5725 5723 5723 5719 5713 5708 5708 5706 5706 5705 5701 5699 5698 5696 5694 5693 5692 5692 5692 5692 5694 5692 5691 5691 5690 5690 5689 5688 5689 5690 5688 5685 5682 5681
5749 5748 5748 5744 5740 5736 5730 5728 5725 5722 5720 5717 5715 5710 5705 5706 5704 5702 5699 5696 5693 5692 5691 5690 5689 5689 5689 5689 5690 5690 5690 5688 5687 5686 5687 5688 5688 5686 5685 5684 5681 5679 5678
5744 5742 5741 5739 5735 5733 5727 5722 5719 5716 5716 5714 5711 5709 5704 5702 5700 5698 5695 5693 5691 5689 5687 5685 5685 5684 5685 5684 5685 5685 5685 5683 5682 5681 5682 5684 5685 5685 5682 5681 5678 5675 5673
5741 5735 5733 5730 5727 5726 5723 5718 5714 5711 5709 5707 5706 5706 5702 5697 5695 5693 5690 5688 5687 5685 5683 5682 5681 5679 5679 5679 5678 5679 5677 5676 5677 5677 5676 5676 5677 5677 5678 5676 5675 5672 5669
5736 5731 5729 5726 5722 5721 5717 5711 5708 5706 5702 5701 5700 5700 5697 5694 5691 5687 5685 5683 5681 5679 5678 5676 5677 5676 5674 5674 5673 5673 5672 5670 5670 5669 5668 5669 5668 5668 5668 5668 5667 5666 5665
5735 5729 5727 5726 5721 5718 5713 5709 5703 5698 5695 5694 5691 5690 5689 5687 5683 5679 5676 5675 5673 5671 5671 5669 5668 5667 5666 5666 5666 5665 5663 5664 5662 5661 5658 5657 5658 5658 5657 5656 5656 5653 5652
5729 5727 5725 5723 5721 5718 5713 5705 5699 5694 5688 5686 5683 5681 5678 5676 5672 5669 5667 5665 5664 5663 5661 5659 5659 5657 5655 5655 5655 5654 5653 5653 5653 5650 5648 5648 5648 5648 5647 5645 5645 5644 5640
5725 5725 5721 5714 5709 5708 5706 5701 5694 5688 5684 5682 5679 5677 5672 5670 5667 5663 5659 5656 5655 5654 5652 5650 5648 5648 5648 5649 5648 5647 5646 5643 5642 5638 5638 5636 5637 5635 5634 5633 5632 5629 5627
5724 5721 5719 5711 5706 5697 5693 5690 5685 5680 5679 5678 5676 5672 5666 5662 5659 5656 5653 5649 5646 5644 5643 5642 5640 5639 5638 5638 5636 5637 5637 5635 5631 5627 5625 5623 5621 5620 5618 5617 5614 5612 5610
5721 5716 5710 5708 5701 5695 5689 5681 5675 5672 5668 5666 5665 5662 5660 5657 5655 5651 5647 5642 5640 5637 5635 5633 5630 5629 5629 5627 5625 5625 5625 5624 5620 5616 5612 5608 5605 5601 5601 5600 5598 5596 5594
5717 5714 5709 5704 5695 5684 5678 5673 5667 5662 5658 5657 5654 5651 5647 5646 5645 5641 5637 5634 5631 5628 5624 5621 5617 5616 5613 5612 5612 5610 5610 5608 5605 5601 5599 5596 5592 5588 5584 5580 5578 5575 5575
5709 5704 5698 5692 5688 5681 5672 5664 5655 5651 5647 5645 5642 5639 5636 5633 5630 5628 5624 5620 5618 5615 5611 5608 5604 5602 5600 5598 5599 5594 5591 5590 5587 5585 5582 5579 5576 5573 5571 5566 5563 5557 5555
5706 5703 5692 5689 5680 5672 5664 5655 5645 5638 5634 5633 5633 5633 5632 5627 5620 5616 5611 5608 5605 5602 5599 5596 5591 5587 5585 5582 5583 5575 5570 5567 5565 5565 5563 5560 5558 5555 5552 5548 5543 5544 5541
5707 5701 5692 5684 5675 5666 5662 5652 5641 5632 5625 5623 5622 5623 5621 5617 5614 5608 5604 5599 5595 5592 5588 5585 5580 5573 5569 5568 5567 5559 5552 5549 5545 5544 5545 5543 5541 5540 5535 5530 5526 5527 5526
5701 5698 5686 5679 5669 5659 5648 5640 5630 5619 5612 5609 5607 5607 5607 5605 5601 5596 5590 5583 5578 5575 5572 5570 5567 5564 5555 5551 5552 5550 5536 5534 5527 5527 5524 5522 5520 5520 5523 5517 5509 5507 5509
5697 5687 5676 5664 5658 5648 5639 5631 5625 5617 5606 5596 5594 5591 5590 5589 5587 5583 5578 5572 5566 5562 5559 5556 5553 5548 5545 5540 5535 5533 5528 5525 5516 5512 5508 5504 5504 5502 5505 5503 5498 5493 5493
5682 5674 5665 5658 5647 5636 5626 5617 5609 5599 5587 5581 5575 5573 5568 5565 5562 5560 5557 5553 5550 5546 5543 5543 5538 5533 5528 5523 5521 5514 5511 5506 5503 5499 5491 5486 5486 5485 5487 5488 5484 5482 5477
5660 5654 5646 5641 5630 5619 5609 5601 5592 5582 5578 5569 5560 5556 5554 5548 5544 5543 5541 5540 5538 5535 5531 5527 5524 5520 5516 5512 5507 5502 5497 5493 5485 5482 5474 5468 5472 5471 5471 5474 5468 5469 5463